User: anonymous   Login
Location: Aiyekoto
(8.4333°N, 4.3667°E)
Time: 10:23:22
(UTC+00:00)
Language:

Cosmos 1934 Rocket - Orbit

View from above orbital plane
View from above orbital plane
View from above satellite
View from above satellite

Ground track
Ground track

The orbit data is extracted from the following two-line orbital elements,

1 18986U 88023B   21131.88729031  .00000013  00000-0 -22015-5 0  9999
2 18986  82.9557  63.6731 0041654 176.4117 183.7349 13.78651907666665
Epoch (UTC): 11 May 2021 21:17:41
Eccentricity: 0.0041654
inclination: 82.9557°
perigee height: 938 km
apogee height: 999 km
right ascension of ascending node: 63.6731°
argument of perigee: 176.4117°
revolutions per day: 13.78651907
mean anomaly at epoch: 183.7349°
orbit number at epoch: 66666

The dashed part of the orbit path shows where the satellite is in the earth's shadow,  

DLR